EW4629 Weather Reports


time (UTC)temp
F
wind
direction
speed
knots
gust
knots
rain 1hr
in
rain 24hr
in
rain mn
in
humidity
%
barometer
mb
20260505011556 66 262 0.0 0.0 0.00 0.00 0.00 33 1011.2
20260505010055 66 240 0.0 0.0 0.00 0.00 0.00 40 1011.0
20260505004554 67 199 0.0 0.0 0.00 0.00 0.00 45 1010.9
20260505003044 68 226 0.0 0.0 0.00 0.00 0.00 52 1010.8
20260505001543 69 299 0.0 0.0 0.00 0.00 0.00 53 1010.8
20260505000035 70 194 0.0 0.0 0.00 0.00 0.00 48 1010.8
20260504234531 71 210 0.0 0.0 0.00 0.00 0.00 46 1010.7
20260504233028 71 241 0.0 0.0 0.00 0.00 0.00 44 1010.6
20260504231521 72 236 0.0 0.0 0.00 0.00 0.00 43 1010.6
20260504230018 73 222 0.0 0.0 0.00 0.00 0.00 42 1010.6
20260504224513 74 205 0.0 0.0 0.00 0.00 0.00 42 1010.6
20260504223009 74 224 0.0 0.0 0.00 0.00 0.00 40 1010.6
20260504221504 74 205 0.0 0.0 0.00 0.00 0.00 40 1010.6
20260504220107 74 193 0.0 0.0 0.00 0.00 0.00 38 1010.6
20260504214604 74 167 0.0 0.0 0.00 0.00 0.00 40 1010.8
20260504213055 74 235 0.0 0.0 0.00 0.00 0.00 40 1010.9
20260504211546 74 91 0.0 0.0 0.00 0.00 0.00 39 1010.8
20260504210055 74 287 0.0 0.0 0.00 0.00 0.00 39 1010.9
20260504204553 74 261 0.0 0.0 0.00 0.00 0.00 39 1010.8
20260504203036 73 293 0.0 0.0 0.00 0.00 0.00 41 1011.0
20260504201530 74 168 0.0 0.0 0.00 0.00 0.00 39 1011.3
20260504200026 75 243 0.0 1.7 0.00 0.00 0.00 37 1011.4
20260504194522 75 191 0.0 0.0 0.00 0.00 0.00 35 1011.4
20260504193018 75 272 0.0 0.0 0.00 0.00 0.00 35 1011.5
20260504191512 75 274 0.0 0.0 0.00 0.00 0.00 33 1011.8
20260504190008 75 264 0.0 0.0 0.00 0.00 0.00 34 1011.8
20260504184503 74 195 0.0 0.0 0.00 0.00 0.00 34 1012.0
20260504183105 74 243 0.0 0.0 0.00 0.00 0.00 33 1012.2
20260504181555 74 236 0.0 0.0 0.00 0.00 0.00 34 1012.4
20260504180105 73 308 0.0 0.0 0.00 0.00 0.00 34 1012.8
20260504174547 74 184 0.0 0.0 0.00 0.00 0.00 33 1012.6
20260504173049 73 233 0.0 0.0 0.00 0.00 0.00 32 1012.9
20260504171538 73 245 0.0 0.0 0.00 0.00 0.00 33 1013.1
20260504081501 56 238 0.0 0.0 0.00 0.00 0.00 1 1015.7
20260504050007 52 229 0.0 0.0 0.00 0.00 0.00 11 1016.1
20260504044509 52 273 0.0 0.0 0.00 0.00 0.00 13 1016.1
20260504043101 51 232 0.0 0.0 0.00 0.00 0.00 21 1016.0
20260504041602 51 231 0.0 0.0 0.00 0.00 0.00 33 1015.9
20260504040055 50 251 0.0 0.0 0.00 0.00 0.00 37 1015.7
20260504034559 50 271 0.0 0.0 0.00 0.00 0.00 44 1015.7
20260504033051 51 274 0.0 0.0 0.00 0.00 0.00 49 1015.5
20260504031551 50 274 0.0 0.0 0.00 0.00 0.00 52 1015.5
20260504030050 50 278 0.0 0.0 0.00 0.00 0.00 53 1015.4
20260504024553 50 280 0.0 0.0 0.00 0.00 0.00 53 1015.4
20260504023050 50 280 0.0 0.0 0.00 0.00 0.00 54 1015.4
20260504021552 50 281 0.0 0.0 0.00 0.00 0.00 55 1015.4
20260504020058 51 281 0.0 0.0 0.00 0.00 0.00 56 1015.4
20260504014548 51 280 0.0 0.0 0.00 0.00 0.00 56 1015.3
20260504013108 52 280 0.0 0.0 0.00 0.00 0.00 56 1015.2